sat.trackr.live / text

‹ back to catalog

FLOCK 4H-8

NORAD 66711 · 2025-276AX

PAYLOAD ACTIVE UNKNOWN

§ Identity

Operator
Country
US
Launch date
2025-11-28
Launch site
AFWTR
Launch vehicle
Mass (kg)
RCS (m²)

Purposes: earth_obs

External: N2YO · Heavens-Above · Gunter

§ Orbital elements

Epoch: 2026-09-20T00:05:36.324096Z

Period
94.66 min
Inclination
97.4150°
Eccentricity
0.0004385
Mean motion
15.21226330 rev/d
Perigee alt
499.1 km
Apogee alt
505.2 km
Semi-major
6,880.3 km
B*
2.1202e-4
RAAN
335.1934°
Arg perigee
59.9040°
Mean anomaly
300.2630°
Rev number
4,483

§ Raw data

FLOCK 4H-81 66711U 25276AX  26263.00389264  .00004664  00000+0  21202-3 0  99932 66711  97.4150 335.1934 0004385  59.9040 300.2630 15.21226330 44832

JSON: /api/v1/satellites/66711 · /tle

For live sub-satellite position, see the globe view (requires WebGL).

§ Visibility from observer

Set your observer location to see the next 7 days of passes ≥ 10°. The values pass through the URL so the page stays shareable.

No JS? Fill the form by hand. The geolocation button needs JavaScript.